Find Starlink 11492

NORAD ID: 62224 Int'l Des: 2024-231 Owner: SPXS Country: US Constellation: starlink operational
LEOCIRCULAR

Live-Position

3D-Globus wird geladen...

Über Starlink 11492

Beschreibung wird geladen...

Nächste Überflüge

Passes for default location (London). Set your location on the main map for personalized predictions.

Höhenverlauf

Loading altitude history...

Zweizeiliger Elementsatz

1 62224U 24231G 26134.23969359 .00198237 00000-0 16014-2 0 9994
2 62224 53.1560 138.3756 0000958 88.7009 271.4118 15.69723957 83701
Epoch: 14. Mai 2026 • Age: 8 hours

Aktueller Status

Höhe 362.8 km
Geschwindigkeit 7.69 km/s
Subsatellitenpunkt -12.41°S, 55.18°E
Startdatum 5. Dez. 2024
Alter 1.4 years
Typ internet

Technische Details

Klassifizierung Payload
Masse 960.00 kg
Trockenmasse 910.00 kg
Gesamtmasse 960.00 kg
Länge 0.30 m
Durchmesser 4.10 m
Spannweite 29.00 m
Form Box + pan
Hersteller SPXS
Bus-Typ Starlink V2MD
Phasenstatus In Orbit
Besitzer/Staat SPXS/US

Most Searched